Kahului, HI

9:52 PM HST on May 06, 2015 (GMT -1000)
Kehalani | | Change Station
CLOSE
Current Station
Personal Weather Station
Location: Wailuku, HI
Elevation: 358 ft
Nearby Weather Stations
Active Advisory: High Surf Advisory

Elev 358 ft 20.87 °N, 156.50 °W | Updated 12 minutes ago

Partly Cloudy
Partly Cloudy
71.6 °F
Feels Like 74 °F
N
5.8
Wind Variable Wind from North

Today
High -- | Low -- °F
--% Chance of Precip.
Yesterday
High -- | Low -- °F
Precip. -- in
5:52 AM 6:52 PM
Waning Gibbous, 89% visible
Pressure 30.05 in
Visibility 10.0 miles
Clouds Few 6000 ft
Heat Index 74 °F
Dew Point 62 °F
Humidity 73%
Rainfall 0.00 in
Snow Depth Not available.
UV 0 out of 12
Pollen Not available.
Air Quality Not available.
Flu Activity Regional
METAR PHOG 070654Z 06014G20KT 10SM FEW060 23/18 A3003 RMK AO2 SLP174 T02280178 $

More Conditions Fewer Conditions

Pressure 30.05 in
Visibility 10.0 miles
Clouds Few 6000 ft
Heat Index 74 °F
Dew Point 62 °F
Humidity 73%
Rainfall 0.00 in
Snow Depth Not available.
UV 0 out of 12
Pollen Not available.
Air Quality Not available.
Flu Activity Regional
METAR PHOG 070654Z 06014G20KT 10SM FEW060 23/18 A3003 RMK AO2 SLP174 T02280178 $

More Conditions Fewer Conditions

10-Day Weather Forecast

Almanac

Astronomy

May. 06, 2015 Rise Set
Actual Time
Civil Twilight
Nautical Twilight
Astronomical Twilight
Moon
Length of Visible Light
Length of Day
Tomorrow will be .
, % of the Moon is Illuminated

Today's Extremes

State Highs State Lows

Community

WunderPhotos

Upload Photos

1,819,126 photos uploaded!

WunderBlogs® & News

Nearby

Air Quality

  Air Quality AQ Index Pollutant
Not available.

Snow Depth

Station Depth Elevation

Earthquake Activity

City Distance Mag. Time & Date
Minimum magnitude displayed is 2.5.

Coastal Water Temperatures

Place Temperature

Stations

Nearby Weather Stations

Station Location Temp. Windchill Dew Point Humidity Wind Precip. Elev Updated Type
                   
High Surf Advisory
Statement as of 3:40 PM HST on May 06, 2015

... High surf advisory remains in effect until 10 am HST
Thursday...

A high surf advisory remains in effect until 10 am HST Thursday.

* Surf... 5 to 8 feet for south facing shores.

* Timing... peaking tonight... gradually diminishing Thursday and
then remaining steady... but below advisory levels... through the
weekend.

* Impacts... moderate... expect strong breaking waves... shore
break... and strong longshore and rip currents making swimming
difficult and dangerous.

Precautionary/preparedness actions...

Beachgoers... swimmers... and surfers should heed all advice given
by ocean safety officials and exercise caution. If in doubt... do
not go out. Boaters should expect recreational surfers and body
boarders utilizing Harbor channels to access surfing areas.



Birchard